| time (UTC) | temp F | wind direction | speed knots | gust knots | rain 1hr in | rain 24hr in | rain mn in | humidity % | barometer mb |
| 20260504160348 | 79 | 193 | 2.6 | 2.6 | 0.00 | 0.00 | 0.00 | 86 | 1015.0 |
| 20260504150346 | 77 | 166 | 1.7 | 0.9 | 0.00 | 0.00 | 0.00 | 90 | 1016.0 |
| 20260504140344 | 67 | 126 | 0.9 | 0.9 | 0.00 | 0.00 | 0.00 | 95 | 1016.0 |
| 20260504130342 | 67 | 97 | 1.7 | 1.7 | 0.00 | 0.00 | 0.00 | 96 | 1016.0 |
| 20260504110337 | 60 | 4 | 0.9 | 0.9 | 0.00 | 0.00 | 0.00 | 92 | 1016.0 |
| 20260504100335 | 68 | 10 | 0.9 | 0.9 | 0.00 | 0.00 | 0.00 | 92 | 1015.0 |
| 20260504080331 | 62 | 328 | 0.0 | 0.0 | 0.00 | 0.00 | 0.00 | 91 | 1015.0 |
| 20260504070329 | 63 | 307 | 0.0 | 0.0 | 0.01 | 0.00 | 0.00 | 92 | 1015.0 |
| 20260504050325 | 65 | 292 | 0.9 | 0.0 | 0.02 | 0.00 | 0.00 | 91 | 1016.0 |
| 20260504043324 | 65 | 292 | 0.9 | 0.0 | 0.00 | 0.00 | 0.00 | 93 | 1016.0 |
| 20260504040323 | 66 | 272 | 0.9 | 0.9 | 0.00 | 0.00 | 0.00 | 91 | 1017.0 |
| 20260504033322 | 66 | 272 | 0.9 | 0.9 | 0.00 | 0.00 | 0.00 | 92 | 1016.0 |
| 20260504030321 | 67 | 294 | 0.9 | 0.9 | 0.00 | 0.00 | 0.00 | 90 | 1016.0 |
| 20260504023320 | 67 | 294 | 0.9 | 0.9 | 0.00 | 0.00 | 0.00 | 92 | 1015.0 |
| 20260504020319 | 68 | 293 | 1.7 | 1.7 | 0.00 | 0.00 | 0.00 | 90 | 1015.0 |
| 20260504013317 | 68 | 293 | 1.7 | 1.7 | 0.00 | 0.00 | 0.00 | 92 | 1014.0 |
| 20260504010316 | 69 | 313 | 3.5 | 4.3 | 0.00 | 0.00 | 0.00 | 89 | 1014.0 |
| 20260504003315 | 70 | 313 | 3.5 | 4.3 | 0.00 | 0.00 | 0.00 | 92 | 1013.0 |
| 20260504000314 | 70 | 329 | 3.5 | 6.1 | 0.00 | 0.00 | 0.00 | 91 | 1012.0 |
| 20260503233313 | 70 | 326 | 3.5 | 6.1 | 0.00 | 0.00 | 0.00 | 90 | 1012.0 |
| 20260503230312 | 71 | 296 | 3.5 | 4.3 | 0.00 | 0.00 | 0.00 | 86 | 1011.0 |
| 20260503223311 | 71 | 296 | 3.5 | 4.3 | 0.00 | 0.00 | 0.00 | 88 | 1010.0 |
| 20260503220310 | 72 | 276 | 4.3 | 7.0 | 0.00 | 0.00 | 0.00 | 85 | 1011.0 |
| 20260503213309 | 72 | 276 | 4.3 | 7.0 | 0.00 | 0.00 | 0.00 | 84 | 1010.0 |
| 20260503210308 | 73 | 273 | 5.2 | 7.0 | 0.00 | 0.00 | 0.00 | 82 | 1010.0 |
| 20260503203307 | 84 | 273 | 5.2 | 7.0 | 0.00 | 0.00 | 0.00 | 77 | 1009.0 |
| 20260503200305 | 84 | 274 | 5.2 | 5.2 | 0.00 | 0.00 | 0.00 | 78 | 1010.0 |
| 20260503193305 | 86 | 274 | 5.2 | 5.2 | 0.00 | 0.00 | 0.00 | 74 | 1009.0 |
| 20260503190303 | 86 | 259 | 4.3 | 4.3 | 0.00 | 0.00 | 0.00 | 78 | 1011.0 |
| 20260503183303 | 84 | 259 | 4.3 | 4.3 | 0.00 | 0.00 | 0.00 | 74 | 1010.0 |
| 20260503180301 | 84 | 232 | 3.5 | 2.6 | 0.00 | 0.00 | 0.00 | 76 | 1011.0 |
| 20260503173300 | 83 | 251 | 3.5 | 2.6 | 0.00 | 0.00 | 0.00 | 76 | 1012.0 |
| 20260503170259 | 79 | 227 | 1.7 | 1.7 | 0.00 | 0.00 | 0.00 | 84 | 1014.0 |